User: anonymous
Location: Caltech
(34.1382°N, 118.1253°W)
Time: 04:21:21
(UTC-07:00)
Language:

Cosmos 2084 - Orbit

View from above orbital plane
View from above orbital plane
View from above satellite
View from above satellite

Ground track
Ground track

The orbit data is extracted from the following two-line orbital elements,

1 20663U 90055A   14292.13989243  .00001970  00000-0  22124-3 0  2582
2 20663 062.7975 228.2554 0044776 326.5023 033.3239 14.89426894314884
Epoch (UTC): 19 October 2014 03:21:26
Eccentricity: 0.0044776
inclination: 62.7975°
perigee height: 568 km
apogee height: 631 km
right ascension of ascending node: 228.2554°
argument of perigee: 326.5023°
revolutions per day: 14.89426894
mean anomaly at epoch: 33.3239°
orbit number at epoch: 31488

The dashed part of the orbit path shows where the satellite is in the earth's shadow,  

DLR